Rochelle, IL

6:52 AM CST on November 15, 2019 (GMT -0600)
Rochelle

Weather History for KRPJ - August, 2019

Change the Weather History Date:

Thursday, August 1, 2019

  Actual Average (KRFD) Record (KRFD)
Temperature  
Mean Temperature 66 °F -  
Max Temperature 80 °F 82 °F 101 °F (1988)
Min Temperature 52 °F 60 °F 48 °F (1924)
Cooling Degree Days 1    
Growing Degree Days 16 (Base 50)    
Moisture  
Dew Point 52 °F    
Average Humidity 66    
Maximum Humidity 100    
Minimum Humidity 30    
Precipitation  
Precipitation 0.00 in - - ()
Sea Level Pressure  
Sea Level Pressure 30.20 in    
Wind  
Wind Speed 2 mph (NE)    
Max Wind Speed 10 mph    
Max Gust Speed -    
Visibility 10 miles    
Events      
Averages and records for this station are not official NWS values.
T = Trace of Precipitation, MM = Missing Value Source: NWS Daily Summary

Daily Weather History Graph

Daily Weather History Graph

Search for Another Location

Airport or City:

Astronomy

Aug. 01, 2019 Rise Set
Actual Time 5:49 AM CDT 8:14 PM CDT
Civil Twilight 5:18 AM CDT 8:46 PM CDT
Nautical Twilight 4:39 AM CDT 9:25 PM CDT
Astronomical Twilight 3:55 AM CDT 10:08 PM CDT
Moon 6:13 AM CDT (8/1) 9:01 PM CDT (8/1)
Length of Visible Light 15h 27m
Length of Day
14h 25m
New Moon, 1% of the Moon is Illuminated
Aug 1
New Moon
Aug 7
First Quarter
Aug 15
Full
Aug 23
Last Quarter
Aug 30
New

Hourly Weather History & Observations

Time (CDT) Temp. Dew Point Humidity Pressure Visibility Wind Dir Wind Speed Gust Speed Precip Events Conditions
12:15 AM 58.3 °F 55.8 °F 91% 30.19 in 10.0 mi Calm Calm - N/A   Clear
12:35 AM 57.0 °F 54.5 °F 91% 30.19 in 10.0 mi Calm Calm - N/A   Clear
12:55 AM 57.9 °F 55.9 °F 93% 30.18 in 10.0 mi Calm Calm - N/A   Clear
1:15 AM 57.7 °F 54.9 °F 90% 30.18 in 10.0 mi ENE 3.5 mph - N/A   Clear
1:35 AM 57.2 °F 54.5 °F 91% 30.18 in 10.0 mi Calm Calm - N/A   Clear
1:55 AM 57.4 °F 54.9 °F 91% 30.19 in 10.0 mi Calm Calm - N/A   Clear
2:15 AM 56.5 °F 55.0 °F 95% 30.20 in 10.0 mi Calm Calm - N/A   Clear
2:35 AM 55.8 °F 54.9 °F 97% 30.20 in 10.0 mi Calm Calm - N/A   Clear
2:55 AM 55.6 °F 54.7 °F 97% 30.19 in 10.0 mi Calm Calm - N/A   Clear
3:15 AM 54.7 °F 53.6 °F 96% 30.19 in 10.0 mi Calm Calm - N/A   Clear
3:35 AM 53.8 °F 53.4 °F 99% 30.20 in 10.0 mi Calm Calm - N/A   Clear
3:55 AM 53.8 °F 53.4 °F 99% 30.19 in 10.0 mi Calm Calm - N/A   Clear
4:15 AM 53.6 °F 53.1 °F 98% 30.19 in 10.0 mi Calm Calm - N/A   Clear
4:35 AM 53.6 °F 53.2 °F 99% 30.20 in 10.0 mi Calm Calm - N/A   Clear
4:55 AM 53.2 °F 52.9 °F 99% 30.20 in 10.0 mi Calm Calm - N/A   Clear
5:15 AM 53.1 °F 53.1 °F 100% 30.20 in 10.0 mi Calm Calm - N/A   Clear
5:35 AM 52.7 °F 52.7 °F 100% 30.21 in 10.0 mi Calm Calm - N/A   Clear
5:55 AM 54.0 °F 53.6 °F 99% 30.21 in 10.0 mi Calm Calm - N/A   Clear
6:15 AM 52.3 °F 51.8 °F 98% 30.21 in 10.0 mi Calm Calm - N/A   Clear
6:35 AM 52.7 °F 52.5 °F 99% 30.21 in 10.0 mi Calm Calm - N/A   Clear
6:55 AM 54.7 °F 54.3 °F 99% 30.22 in 10.0 mi Calm Calm - N/A   Clear
7:15 AM 57.9 °F 56.7 °F 96% 30.22 in 10.0 mi Calm Calm - N/A   Clear
7:35 AM 59.4 °F 57.2 °F 93% 30.23 in 10.0 mi North 3.5 mph - N/A   Clear
7:55 AM 61.2 °F 57.2 °F 87% 30.23 in 10.0 mi Calm Calm - N/A   Clear
8:15 AM 62.8 °F 55.9 °F 78% 30.23 in 10.0 mi ENE 4.6 mph - N/A   Clear
8:35 AM 63.9 °F 56.8 °F 78% 30.24 in 10.0 mi NNE 3.5 mph - N/A   Clear
8:55 AM 65.8 °F 57.2 °F 74% 30.24 in 10.0 mi NE 3.5 mph - N/A   Clear
9:15 AM 67.6 °F 56.1 °F 67% 30.24 in 10.0 mi NNE 3.5 mph - N/A   Clear
9:35 AM 69.3 °F 54.5 °F 59% 30.24 in 10.0 mi North 3.5 mph - N/A   Clear
10:00 AM 71.6 °F 51.6 °F 49% 30.24 in 10.0 mi NE 5.8 mph - N/A   Clear
10:15 AM 72.5 °F 49.8 °F 45% 30.24 in 10.0 mi NE 6.9 mph - N/A   Clear
10:35 AM 72.9 °F 51.4 °F 47% 30.23 in 10.0 mi NNE 5.8 mph - N/A   Clear
10:55 AM 73.8 °F 55.2 °F 52% 30.24 in 10.0 mi NE 6.9 mph - N/A   Clear
11:15 AM 74.5 °F 54.1 °F 49% 30.24 in 10.0 mi NE 9.2 mph - N/A   Clear
11:35 AM 75.2 °F 52.3 °F 45% 30.23 in 10.0 mi NE 8.1 mph - N/A   Clear
11:55 AM 75.2 °F 52.3 °F 45% 30.23 in 10.0 mi ENE 6.9 mph - N/A   Clear
12:15 PM 75.4 °F 51.8 °F 44% 30.23 in 10.0 mi NNE 5.8 mph - N/A   Clear
12:35 PM 76.8 °F 53.4 °F 44% 30.23 in 10.0 mi North 9.2 mph - N/A   Clear
12:55 PM 77.0 °F 53.4 °F 44% 30.22 in 10.0 mi NE 6.9 mph - N/A   Clear
1:15 PM 77.4 °F 53.2 °F 43% 30.21 in 10.0 mi North 8.1 mph - N/A   Clear
1:35 PM 77.4 °F 52.3 °F 42% 30.21 in 10.0 mi NNE 5.8 mph - N/A   Clear
1:50 PM 77.9 °F 52.2 °F 41% 30.21 in 10.0 mi North 6.9 mph - N/A   Clear
2:15 PM 78.8 °F 53.4 °F 41% 30.20 in 10.0 mi North 9.2 mph - N/A   Clear
2:35 PM 79.3 °F 50.7 °F 37% 30.20 in 10.0 mi East 5.8 mph - N/A   Clear
2:55 PM 79.3 °F 50.5 °F 36% 30.19 in 10.0 mi Calm Calm - N/A   Clear
3:15 PM 79.7 °F 50.4 °F 36% 30.19 in 10.0 mi East 10.4 mph - N/A   Clear
3:35 PM 79.9 °F 47.5 °F 32% 30.18 in 10.0 mi East 5.8 mph - N/A   Clear
3:55 PM 79.7 °F 47.7 °F 32% 30.18 in 10.0 mi NE 4.6 mph - N/A   Clear
4:15 PM 80.1 °F 48.9 °F 34% 30.18 in 10.0 mi NE 5.8 mph - N/A   Clear
4:35 PM 79.2 °F 46.8 °F 32% 30.17 in 10.0 mi NNE 4.6 mph - N/A   Clear
4:55 PM 79.5 °F 45.9 °F 30% 30.18 in 10.0 mi ENE 6.9 mph - N/A   Clear
5:15 PM 79.9 °F 47.1 °F 32% 30.17 in 10.0 mi NNE 5.8 mph - N/A   Clear
5:35 PM 79.3 °F 45.7 °F 30% 30.17 in 10.0 mi ENE 4.6 mph - N/A   Clear
5:55 PM 78.8 °F 47.1 °F 33% 30.16 in 10.0 mi NE 5.8 mph - N/A   Clear
6:15 PM 78.4 °F 49.3 °F 36% 30.16 in 10.0 mi NNE 4.6 mph - N/A   Clear
6:35 PM 77.7 °F 49.1 °F 36% 30.16 in 10.0 mi NNE 4.6 mph - N/A   Clear
6:55 PM 77.2 °F 48.7 °F 37% 30.15 in 10.0 mi NE 5.8 mph - N/A   Clear
7:15 PM 75.4 °F 51.1 °F 42% 30.15 in 10.0 mi NE 4.6 mph - N/A   Clear
7:35 PM 73.2 °F 51.4 °F 46% 30.15 in 10.0 mi NNE 6.9 mph - N/A   Clear
7:55 PM 70.9 °F 51.1 °F 49% 30.15 in 10.0 mi NNE 5.8 mph - N/A   Clear
8:15 PM 68.7 °F 51.3 °F 54% 30.15 in 10.0 mi NNE 6.9 mph - N/A   Clear
8:35 PM 67.3 °F 50.4 °F 55% 30.16 in 10.0 mi NNE 6.9 mph - N/A   Clear
8:55 PM 66.7 °F 50.0 °F 55% 30.16 in 10.0 mi NE 5.8 mph - N/A   Clear
9:15 PM 64.9 °F 50.4 °F 59% 30.17 in 10.0 mi NE 5.8 mph - N/A   Clear
9:35 PM 64.9 °F 52.2 °F 63% 30.18 in 10.0 mi NE 4.6 mph - N/A   Clear
9:55 PM 61.7 °F 52.7 °F 72% 30.18 in 10.0 mi NE 4.6 mph - N/A   Clear
10:15 PM 59.7 °F 53.1 °F 79% 30.18 in 10.0 mi ENE 3.5 mph - N/A   Clear
10:35 PM 59.2 °F 52.5 °F 79% 30.19 in 10.0 mi NE 3.5 mph - N/A   Clear
10:55 PM 59.0 °F 52.3 °F 79% 30.19 in 10.0 mi Calm Calm - N/A   Clear
11:15 PM 56.1 °F 51.6 °F 85% 30.19 in 10.0 mi Calm Calm - N/A   Clear
11:35 PM 57.6 °F 52.9 °F 84% 30.19 in 10.0 mi Calm Calm - N/A   Clear
11:55 PM 55.0 °F 52.2 °F 90% 30.19 in 10.0 mi Calm Calm - N/A   Clear